| time (UTC) | temp F | wind direction | speed knots | gust knots | rain 1hr in | rain 24hr in | rain mn in | humidity % | barometer mb |
| 20260506234121 | 63 | 252 | 1.7 | 2.6 | 0.00 | 0.39 | 0.00 | 85 | 1008.6 |
| 20260506233621 | 63 | 295 | 2.6 | 2.6 | 0.00 | 0.39 | 0.00 | 85 | 1008.7 |
| 20260506233121 | 63 | 321 | 0.0 | 2.6 | 0.00 | 0.39 | 0.00 | 85 | 1008.7 |
| 20260506232621 | 63 | 272 | 0.0 | 3.5 | 0.00 | 0.39 | 0.00 | 85 | 1008.7 |
| 20260506232118 | 63 | 238 | 3.5 | 6.1 | 0.00 | 0.39 | 0.00 | 85 | 1008.7 |
| 20260506231627 | 63 | 235 | 1.7 | 5.2 | 0.00 | 0.39 | 0.00 | 85 | 1008.8 |
| 20260506231121 | 63 | 219 | 1.7 | 3.5 | 0.00 | 0.39 | 0.00 | 85 | 1008.7 |
| 20260506230618 | 63 | 252 | 1.7 | 3.5 | 0.00 | 0.39 | 0.00 | 85 | 1008.8 |
| 20260506230121 | 63 | 120 | 1.7 | 6.1 | 0.00 | 0.39 | 0.00 | 85 | 1008.6 |
| 20260506225618 | 63 | 221 | 1.7 | 4.3 | 0.00 | 0.39 | 0.00 | 85 | 1008.6 |
| 20260506225121 | 63 | 231 | 2.6 | 4.3 | 0.00 | 0.39 | 0.00 | 85 | 1008.6 |
| 20260506224624 | 63 | 259 | 0.9 | 2.6 | 0.00 | 0.39 | 0.00 | 85 | 1008.6 |
| 20260506224118 | 63 | 312 | 0.9 | 2.6 | 0.00 | 0.39 | 0.00 | 84 | 1008.6 |
| 20260506223618 | 63 | 238 | 1.7 | 6.1 | 0.00 | 0.39 | 0.00 | 84 | 1008.5 |
| 20260506223118 | 63 | 202 | 6.1 | 7.0 | 0.00 | 0.39 | 0.00 | 85 | 1008.5 |
| 20260506222618 | 63 | 222 | 1.7 | 4.3 | 0.00 | 0.39 | 0.00 | 84 | 1008.5 |
| 20260506222118 | 63 | 213 | 4.3 | 6.1 | 0.00 | 0.39 | 0.00 | 84 | 1008.6 |
| 20260506221618 | 63 | 243 | 2.6 | 7.0 | 0.00 | 0.39 | 0.00 | 84 | 1008.7 |
| 20260506221121 | 63 | 191 | 2.6 | 7.8 | 0.00 | 0.39 | 0.00 | 84 | 1008.8 |
| 20260506220621 | 63 | 172 | 1.7 | 6.1 | 0.00 | 0.39 | 0.00 | 84 | 1008.6 |
| 20260506220121 | 63 | 184 | 3.5 | 8.7 | 0.00 | 0.39 | 0.00 | 84 | 1008.7 |
| 20260506215618 | 63 | 239 | 4.3 | 7.0 | 0.00 | 0.39 | 0.00 | 84 | 1008.6 |
| 20260506215121 | 63 | 167 | 5.2 | 7.8 | 0.00 | 0.39 | 0.00 | 84 | 1008.7 |
| 20260506214618 | 63 | 188 | 6.1 | 7.0 | 0.00 | 0.39 | 0.00 | 84 | 1008.7 |
| 20260506214119 | 63 | 209 | 2.6 | 8.7 | 0.00 | 0.39 | 0.00 | 83 | 1008.8 |
| 20260506213621 | 63 | 219 | 4.3 | 9.6 | 0.00 | 0.39 | 0.00 | 83 | 1008.7 |
| 20260506213121 | 63 | 173 | 7.8 | 9.6 | 0.00 | 0.39 | 0.00 | 83 | 1008.7 |
| 20260506212621 | 63 | 223 | 4.3 | 8.7 | 0.00 | 0.39 | 0.00 | 83 | 1008.7 |
| 20260506212124 | 63 | 167 | 9.6 | 9.6 | 0.00 | 0.39 | 0.00 | 83 | 1008.8 |
| 20260506211621 | 63 | 219 | 2.6 | 7.8 | 0.00 | 0.39 | 0.00 | 83 | 1008.8 |
| 20260506211121 | 63 | 189 | 6.1 | 8.7 | 0.00 | 0.39 | 0.00 | 83 | 1008.8 |
| 20260506210624 | 63 | 214 | 3.5 | 8.7 | 0.00 | 0.39 | 0.00 | 82 | 1008.7 |
| 20260506210121 | 63 | 202 | 4.3 | 7.8 | 0.00 | 0.39 | 0.00 | 82 | 1008.7 |
| 20260506205621 | 63 | 180 | 2.6 | 7.8 | 0.00 | 0.39 | 0.00 | 82 | 1008.7 |
| 20260506205124 | 63 | 170 | 5.2 | 7.8 | 0.00 | 0.39 | 0.00 | 81 | 1008.7 |
| 20260506204618 | 63 | 242 | 4.3 | 7.0 | 0.00 | 0.39 | 0.00 | 82 | 1008.6 |
| 20260506204121 | 63 | 212 | 1.7 | 7.0 | 0.00 | 0.39 | 0.00 | 81 | 1008.6 |
| 20260506203625 | 63 | 260 | 1.7 | 6.1 | 0.00 | 0.39 | 0.00 | 81 | 1008.6 |
| 20260506203121 | 63 | 235 | 2.6 | 6.1 | 0.00 | 0.39 | 0.00 | 81 | 1008.5 |
| 20260506202618 | 63 | 187 | 2.6 | 10.4 | 0.00 | 0.39 | 0.00 | 81 | 1008.4 |
| 20260506202118 | 63 | 205 | 4.3 | 7.0 | 0.00 | 0.39 | 0.00 | 81 | 1008.4 |
| 20260506201621 | 63 | 231 | 1.7 | 5.2 | 0.00 | 0.39 | 0.00 | 82 | 1008.4 |
| 20260506201121 | 63 | 216 | 2.6 | 7.8 | 0.00 | 0.39 | 0.00 | 81 | 1008.3 |
| 20260506200621 | 63 | 218 | 2.6 | 5.2 | 0.00 | 0.39 | 0.00 | 81 | 1008.3 |
| 20260506200121 | 63 | 188 | 1.7 | 7.0 | 0.00 | 0.39 | 0.00 | 81 | 1008.3 |
| 20260506195621 | 63 | 184 | 2.6 | 7.8 | 0.00 | 0.39 | 0.00 | 81 | 1008.2 |
| 20260506195121 | 63 | 199 | 1.7 | 8.7 | 0.00 | 0.39 | 0.00 | 81 | 1008.1 |
| 20260506194624 | 63 | 188 | 3.5 | 7.8 | 0.00 | 0.39 | 0.00 | 81 | 1008.0 |
| 20260506194121 | 63 | 227 | 4.3 | 8.7 | 0.00 | 0.39 | 0.00 | 81 | 1008.0 |
| 20260506193618 | 63 | 186 | 1.7 | 7.8 | 0.00 | 0.39 | 0.00 | 81 | 1007.9 |
| 20260506193121 | 63 | 234 | 2.6 | 8.7 | 0.00 | 0.39 | 0.00 | 81 | 1007.7 |
| 20260506192621 | 63 | 179 | 5.2 | 8.7 | 0.00 | 0.39 | 0.00 | 81 | 1007.6 |
| 20260506192121 | 63 | 254 | 2.6 | 6.1 | 0.00 | 0.39 | 0.00 | 81 | 1007.5 |
| 20260506191624 | 63 | 259 | 0.9 | 4.3 | 0.00 | 0.39 | 0.00 | 81 | 1007.5 |
| 20260506191118 | 63 | 313 | 1.7 | 2.6 | 0.00 | 0.39 | 0.00 | 81 | 1007.5 |
| 20260506190621 | 63 | 312 | 0.9 | 3.5 | 0.00 | 0.39 | 0.00 | 81 | 1007.4 |
| 20260506190121 | 63 | 155 | 0.9 | 4.3 | 0.00 | 0.39 | 0.00 | 81 | 1007.3 |
| 20260506185618 | 63 | 355 | 1.7 | 4.3 | 0.00 | 0.39 | 0.00 | 81 | 1007.4 |
| 20260506185124 | 63 | 248 | 0.9 | 5.2 | 0.00 | 0.39 | 0.00 | 81 | 1007.3 |
| 20260506184621 | 63 | 204 | 4.3 | 3.5 | 0.00 | 0.39 | 0.00 | 81 | 1007.2 |
| 20260506184121 | 63 | 316 | 1.7 | 3.5 | 0.00 | 0.39 | 0.00 | 82 | 1007.2 |
| 20260506183618 | 63 | 236 | 1.7 | 5.2 | 0.00 | 0.39 | 0.00 | 81 | 1007.1 |
| 20260506183127 | 63 | 88 | 0.9 | 7.0 | 0.00 | 0.39 | 0.00 | 82 | 1007.0 |
| 20260506182618 | 63 | 211 | 6.1 | 8.7 | 0.00 | 0.39 | 0.00 | 81 | 1007.1 |
| 20260506182118 | 63 | 181 | 5.2 | 9.6 | 0.00 | 0.39 | 0.00 | 82 | 1007.1 |
| 20260506181621 | 63 | 206 | 2.6 | 9.6 | 0.00 | 0.39 | 0.00 | 82 | 1006.9 |
| 20260506181118 | 63 | 204 | 7.0 | 10.4 | 0.00 | 0.39 | 0.00 | 82 | 1006.9 |
| 20260506180618 | 63 | 213 | 5.2 | 8.7 | 0.00 | 0.39 | 0.00 | 82 | 1006.9 |
| 20260506180121 | 63 | 196 | 3.5 | 9.6 | 0.00 | 0.39 | 0.00 | 81 | 1006.8 |
| 20260506175621 | 63 | 161 | 7.8 | 9.6 | 0.00 | 0.39 | 0.00 | 82 | 1006.6 |
| 20260506175124 | 64 | 206 | 8.7 | 8.7 | 0.00 | 0.39 | 0.00 | 82 | 1006.5 |
| 20260506174627 | 64 | 302 | 1.7 | 7.8 | 0.00 | 0.39 | 0.00 | 82 | 1006.5 |
| 20260506174124 | 64 | 264 | 2.6 | 10.4 | 0.00 | 0.39 | 0.00 | 81 | 1006.5 |
| 20260506173624 | 64 | 219 | 4.3 | 5.2 | 0.00 | 0.39 | 0.00 | 81 | 1006.6 |
| 20260506173121 | 64 | 260 | 2.6 | 7.0 | 0.00 | 0.39 | 0.00 | 81 | 1006.6 |
| 20260506172618 | 64 | 258 | 3.5 | 7.0 | 0.00 | 0.39 | 0.00 | 80 | 1006.6 |
| 20260506172118 | 64 | 230 | 7.0 | 7.0 | 0.00 | 0.39 | 0.00 | 80 | 1006.6 |
| 20260506171618 | 64 | 295 | 2.6 | 7.8 | 0.00 | 0.39 | 0.00 | 81 | 1006.6 |
| 20260506171121 | 64 | 290 | 4.3 | 6.1 | 0.00 | 0.39 | 0.00 | 81 | 1006.5 |
| 20260506170618 | 64 | 250 | 6.1 | 7.0 | 0.00 | 0.39 | 0.00 | 81 | 1006.5 |
| 20260506170127 | 64 | 304 | 3.5 | 7.8 | 0.00 | 0.39 | 0.00 | 82 | 1006.4 |
| 20260506165624 | 64 | 317 | 3.5 | 5.2 | 0.00 | 0.39 | 0.00 | 83 | 1006.4 |
| 20260506165124 | 64 | 313 | 2.6 | 3.5 | 0.00 | 0.39 | 0.00 | 83 | 1006.4 |
| 20260506164618 | 64 | 0 | 0.9 | 6.1 | 0.00 | 0.39 | 0.00 | 83 | 1006.5 |
| 20260506164124 | 64 | 263 | 5.2 | 7.0 | 0.00 | 0.39 | 0.00 | 83 | 1006.4 |
| 20260506163618 | 64 | 257 | 2.6 | 5.2 | 0.00 | 0.39 | 0.00 | 84 | 1006.4 |
| 20260506163118 | 64 | 330 | 0.9 | 4.3 | 0.00 | 0.39 | 0.00 | 84 | 1006.4 |
| 20260506162621 | 64 | 314 | 2.6 | 6.1 | 0.00 | 0.39 | 0.00 | 84 | 1006.4 |
| 20260506162124 | 64 | 22 | 3.5 | 7.0 | 0.00 | 0.39 | 0.00 | 84 | 1006.3 |
| 20260506161618 | 64 | 279 | 2.6 | 6.1 | 0.00 | 0.39 | 0.00 | 84 | 1006.3 |
| 20260506161121 | 64 | 304 | 6.1 | 6.1 | 0.00 | 0.39 | 0.00 | 83 | 1006.4 |
| 20260506160621 | 64 | 243 | 3.5 | 7.0 | 0.00 | 0.39 | 0.00 | 82 | 1006.4 |
| 20260506160118 | 64 | 326 | 3.5 | 7.8 | 0.00 | 0.39 | 0.00 | 81 | 1006.5 |
| 20260506155618 | 64 | 262 | 1.7 | 7.0 | 0.00 | 0.39 | 0.00 | 81 | 1006.5 |
| 20260506155118 | 64 | 282 | 3.5 | 7.0 | 0.00 | 0.39 | 0.00 | 80 | 1006.4 |
| 20260506154624 | 64 | 241 | 3.5 | 7.0 | 0.00 | 0.39 | 0.00 | 80 | 1006.3 |
| 20260506154118 | 64 | 252 | 4.3 | 9.6 | 0.00 | 0.39 | 0.00 | 80 | 1006.3 |
| 20260506153618 | 65 | 193 | 8.7 | 9.6 | 0.00 | 0.39 | 0.00 | 79 | 1006.3 |
| 20260506153121 | 65 | 213 | 7.8 | 9.6 | 0.00 | 0.39 | 0.00 | 79 | 1006.3 |
| 20260506152624 | 65 | 238 | 1.7 | 6.1 | 0.00 | 0.39 | 0.00 | 79 | 1006.4 |
| 20260506152119 | 65 | 220 | 4.3 | 11.3 | 0.00 | 0.39 | 0.00 | 79 | 1006.4 |
| 20260506151621 | 65 | 227 | 4.3 | 10.4 | 0.00 | 0.39 | 0.00 | 79 | 1006.4 |
| 20260506151121 | 65 | 198 | 7.8 | 10.4 | 0.00 | 0.39 | 0.00 | 78 | 1006.4 |
| 20260506150618 | 65 | 174 | 7.0 | 12.2 | 0.00 | 0.39 | 0.00 | 79 | 1006.4 |
| 20260506150118 | 65 | 207 | 7.8 | 13.0 | 0.00 | 0.39 | 0.00 | 79 | 1006.4 |
| 20260506145618 | 65 | 187 | 8.7 | 10.4 | 0.00 | 0.39 | 0.00 | 79 | 1006.4 |
| 20260506145121 | 65 | 212 | 4.3 | 11.3 | 0.00 | 0.39 | 0.00 | 77 | 1006.4 |
| 20260506144618 | 65 | 205 | 3.5 | 10.4 | 0.00 | 0.39 | 0.00 | 78 | 1006.4 |
| 20260506144118 | 65 | 196 | 5.2 | 9.6 | 0.00 | 0.39 | 0.00 | 77 | 1006.5 |
| 20260506143618 | 65 | 202 | 6.1 | 9.6 | 0.00 | 0.39 | 0.00 | 77 | 1006.4 |
| 20260506143118 | 65 | 238 | 5.2 | 9.6 | 0.00 | 0.39 | 0.00 | 78 | 1006.5 |
| 20260506142618 | 65 | 218 | 7.0 | 11.3 | 0.00 | 0.39 | 0.00 | 77 | 1006.4 |
| 20260506142118 | 65 | 175 | 8.7 | 12.2 | 0.00 | 0.39 | 0.00 | 78 | 1006.4 |
| 20260506141618 | 65 | 227 | 6.1 | 9.6 | 0.00 | 0.39 | 0.00 | 78 | 1006.4 |
| 20260506141121 | 65 | 216 | 6.1 | 11.3 | 0.00 | 0.39 | 0.00 | 80 | 1006.5 |
| 20260506140624 | 65 | 185 | 6.1 | 11.3 | 0.00 | 0.39 | 0.00 | 80 | 1006.5 |
| 20260506140118 | 65 | 228 | 3.5 | 10.4 | 0.00 | 0.39 | 0.00 | 81 | 1006.5 |
| 20260506135621 | 65 | 197 | 5.2 | 9.6 | 0.00 | 0.39 | 0.00 | 82 | 1006.5 |
| 20260506135118 | 65 | 207 | 6.1 | 11.3 | 0.00 | 0.39 | 0.00 | 80 | 1006.5 |
| 20260506134618 | 65 | 200 | 6.1 | 9.6 | 0.00 | 0.39 | 0.00 | 80 | 1006.5 |
| 20260506134124 | 65 | 198 | 6.1 | 12.2 | 0.00 | 0.39 | 0.00 | 79 | 1006.6 |
| 20260506133621 | 65 | 178 | 5.2 | 11.3 | 0.00 | 0.39 | 0.00 | 81 | 1006.6 |
| 20260506133118 | 65 | 173 | 1.7 | 9.6 | 0.00 | 0.39 | 0.00 | 79 | 1006.7 |
| 20260506132618 | 65 | 202 | 3.5 | 10.4 | 0.00 | 0.39 | 0.00 | 80 | 1006.7 |
| 20260506132121 | 65 | 211 | 8.7 | 12.2 | 0.00 | 0.39 | 0.00 | 80 | 1006.6 |
| 20260506131621 | 66 | 192 | 9.6 | 9.6 | 0.00 | 0.39 | 0.00 | 81 | 1006.7 |
| 20260506131121 | 65 | 178 | 4.3 | 10.4 | 0.00 | 0.39 | 0.00 | 81 | 1006.8 |
| 20260506130618 | 65 | 232 | 7.0 | 14.8 | 0.00 | 0.39 | 0.00 | 82 | 1006.8 |
| 20260506130121 | 65 | 229 | 9.6 | 11.3 | 0.00 | 0.39 | 0.00 | 81 | 1006.8 |
| 20260506125621 | 65 | 217 | 11.3 | 11.3 | 0.00 | 0.39 | 0.00 | 80 | 1006.8 |
| 20260506125121 | 65 | 248 | 3.5 | 10.4 | 0.00 | 0.39 | 0.00 | 79 | 1006.9 |
| 20260506124621 | 66 | 217 | 2.6 | 12.2 | 0.00 | 0.39 | 0.00 | 79 | 1006.7 |
| 20260506124118 | 65 | 208 | 7.0 | 8.7 | 0.00 | 0.39 | 0.00 | 80 | 1006.6 |
| 20260506123618 | 65 | 146 | 2.6 | 9.6 | 0.00 | 0.39 | 0.00 | 78 | 1006.5 |
| 20260506123121 | 65 | 205 | 0.9 | 8.7 | 0.00 | 0.39 | 0.00 | 78 | 1006.5 |
| 20260506122624 | 65 | 234 | 1.7 | 10.4 | 0.00 | 0.39 | 0.00 | 78 | 1006.5 |
| 20260506122118 | 65 | 207 | 3.5 | 10.4 | 0.00 | 0.39 | 0.00 | 80 | 1006.5 |
| 20260506121621 | 64 | 214 | 3.5 | 7.8 | 0.00 | 0.39 | 0.00 | 82 | 1006.5 |
| 20260506121118 | 64 | 175 | 6.1 | 7.8 | 0.00 | 0.39 | 0.00 | 83 | 1006.6 |
| 20260506120621 | 64 | 180 | 3.5 | 7.0 | 0.00 | 0.39 | 0.00 | 82 | 1006.5 |
| 20260506120118 | 64 | 188 | 5.2 | 8.7 | 0.00 | 0.39 | 0.00 | 82 | 1006.6 |
| 20260506115618 | 64 | 257 | 6.1 | 7.0 | 0.00 | 0.39 | 0.00 | 83 | 1006.5 |
| 20260506115118 | 64 | 261 | 2.6 | 6.1 | 0.00 | 0.39 | 0.00 | 83 | 1006.5 |
| 20260506114624 | 64 | 205 | 1.7 | 7.0 | 0.00 | 0.39 | 0.00 | 82 | 1006.5 |
| 20260506114121 | 64 | 159 | 5.2 | 5.2 | 0.00 | 0.39 | 0.00 | 82 | 1006.5 |
| 20260506113618 | 64 | 193 | 2.6 | 8.7 | 0.00 | 0.39 | 0.00 | 83 | 1006.5 |
| 20260506113121 | 64 | 208 | 2.6 | 9.6 | 0.00 | 0.39 | 0.00 | 82 | 1006.5 |
| 20260506112618 | 64 | 184 | 4.3 | 8.7 | 0.00 | 0.39 | 0.00 | 83 | 1006.5 |
| 20260506112118 | 64 | 212 | 6.1 | 6.1 | 0.00 | 0.39 | 0.00 | 83 | 1006.5 |
| 20260506111621 | 64 | 175 | 1.7 | 7.0 | 0.00 | 0.39 | 0.00 | 83 | 1006.5 |
| 20260506111124 | 64 | 215 | 3.5 | 7.8 | 0.00 | 0.39 | 0.00 | 84 | 1006.4 |
| 20260506110621 | 64 | 220 | 1.7 | 6.1 | 0.00 | 0.39 | 0.00 | 83 | 1006.4 |
| 20260506110118 | 64 | 205 | 0.9 | 2.6 | 0.00 | 0.39 | 0.00 | 83 | 1006.4 |
| 20260506105624 | 64 | 171 | 0.9 | 4.3 | 0.00 | 0.39 | 0.00 | 82 | 1006.4 |
| 20260506105118 | 64 | 105 | 1.7 | 3.5 | 0.00 | 0.39 | 0.00 | 82 | 1006.4 |
| 20260506104618 | 65 | 97 | 1.7 | 3.5 | 0.00 | 0.39 | 0.00 | 81 | 1006.5 |
| 20260506104118 | 64 | 227 | 0.0 | 2.6 | 0.00 | 0.39 | 0.00 | 82 | 1006.4 |
| 20260506103618 | 64 | 207 | 1.7 | 3.5 | 0.00 | 0.39 | 0.00 | 82 | 1006.5 |
| 20260506103118 | 64 | 65 | 0.0 | 1.7 | 0.00 | 0.39 | 0.00 | 82 | 1006.4 |
| 20260506102621 | 64 | 167 | 0.0 | 4.3 | 0.00 | 0.39 | 0.00 | 81 | 1006.4 |
| 20260506102127 | 64 | 165 | 1.7 | 3.5 | 0.00 | 0.39 | 0.00 | 82 | 1006.3 |
| 20260506101624 | 64 | 51 | 0.0 | 1.7 | 0.00 | 0.39 | 0.00 | 82 | 1006.3 |
| 20260506101121 | 64 | 65 | 1.7 | 1.7 | 0.00 | 0.39 | 0.00 | 83 | 1006.3 |
| 20260506100618 | 64 | 55 | 0.0 | 2.6 | 0.00 | 0.39 | 0.00 | 81 | 1006.3 |
| 20260506100124 | 64 | 65 | 1.7 | 3.5 | 0.00 | 0.39 | 0.00 | 81 | 1006.3 |
| 20260506095627 | 64 | 254 | 3.5 | 3.5 | 0.00 | 0.39 | 0.00 | 81 | 1006.3 |
| 20260506095118 | 64 | 94 | 1.7 | 4.3 | 0.00 | 0.39 | 0.00 | 80 | 1006.3 |
| 20260506094627 | 65 | 74 | 2.6 | 5.2 | 0.00 | 0.39 | 0.00 | 78 | 1006.2 |
| 20260506094121 | 65 | 228 | 2.6 | 4.3 | 0.00 | 0.39 | 0.00 | 78 | 1006.2 |
| 20260506093618 | 65 | 73 | 2.6 | 3.5 | 0.00 | 0.39 | 0.00 | 77 | 1006.2 |
| 20260506093118 | 65 | 184 | 0.0 | 3.5 | 0.00 | 0.39 | 0.00 | 76 | 1006.2 |
| 20260506092624 | 65 | 180 | 0.9 | 2.6 | 0.00 | 0.39 | 0.00 | 77 | 1006.1 |
| 20260506092127 | 65 | 232 | 1.7 | 5.2 | 0.00 | 0.39 | 0.00 | 77 | 1006.1 |
| 20260506091624 | 65 | 211 | 2.6 | 3.5 | 0.00 | 0.39 | 0.00 | 77 | 1006.1 |
| 20260506091118 | 65 | 277 | 2.6 | 4.3 | 0.00 | 0.39 | 0.00 | 76 | 1006.0 |
| 20260506090624 | 65 | 172 | 0.9 | 1.7 | 0.00 | 0.39 | 0.00 | 76 | 1006.0 |
| 20260506090118 | 65 | 192 | 0.9 | 5.2 | 0.00 | 0.39 | 0.00 | 76 | 1005.9 |
| 20260506085618 | 65 | 200 | 2.6 | 4.3 | 0.00 | 0.39 | 0.00 | 77 | 1005.9 |
| 20260506085118 | 65 | 212 | 2.6 | 4.3 | 0.00 | 0.39 | 0.00 | 77 | 1005.9 |
| 20260506084621 | 65 | 190 | 2.6 | 4.3 | 0.00 | 0.39 | 0.00 | 76 | 1005.8 |
| 20260506084118 | 65 | 173 | 0.9 | 4.3 | 0.00 | 0.39 | 0.00 | 76 | 1005.8 |
| 20260506083618 | 65 | 154 | 3.5 | 4.3 | 0.00 | 0.39 | 0.00 | 76 | 1005.7 |
| 20260506083118 | 65 | 268 | 0.0 | 2.6 | 0.00 | 0.39 | 0.00 | 77 | 1005.7 |
| 20260506082618 | 65 | 179 | 0.9 | 4.3 | 0.00 | 0.39 | 0.00 | 77 | 1005.7 |
| 20260506082118 | 65 | 192 | 3.5 | 4.3 | 0.00 | 0.39 | 0.00 | 77 | 1005.6 |
| 20260506081618 | 65 | 163 | 0.9 | 4.3 | 0.00 | 0.39 | 0.00 | 77 | 1005.5 |
| 20260506081118 | 65 | 221 | 1.7 | 2.6 | 0.00 | 0.39 | 0.00 | 79 | 1005.5 |
| 20260506080621 | 64 | 107 | 0.9 | 2.6 | 0.00 | 0.39 | 0.00 | 79 | 1005.5 |
| 20260506080124 | 64 | 310 | 0.0 | 2.6 | 0.00 | 0.39 | 0.00 | 80 | 1005.6 |
| 20260506073121 | 61 | 16 | 0.0 | 1.7 | 0.00 | 0.39 | 0.00 | 91 | 1005.6 |
| 20260506072618 | 61 | 17 | 0.0 | 0.9 | 0.00 | 0.39 | 0.00 | 93 | 1005.7 |
| 20260506072127 | 61 | 16 | 0.0 | 0.9 | 0.00 | 0.38 | 0.00 | 94 | 1005.5 |
| 20260506071618 | 60 | 16 | 0.0 | 0.9 | 0.00 | 0.38 | 0.00 | 94 | 1005.5 |
| 20260506071118 | 60 | 16 | 0.0 | 0.0 | 0.00 | 0.38 | 0.00 | 95 | 1005.4 |
| 20260506070618 | 59 | 16 | 0.0 | 1.7 | 0.00 | 0.38 | 0.00 | 95 | 1005.3 |
| 20260506070118 | 59 | 16 | 0.9 | 1.7 | 0.00 | 0.38 | 0.00 | 94 | 1005.2 |
| 20260506062118 | 58 | 39 | 0.0 | 5.2 | 0.11 | 0.38 | 0.00 | 93 | 1004.3 |
| 20260506061621 | 58 | 40 | 4.3 | 6.1 | 0.14 | 0.38 | 0.00 | 93 | 1004.2 |
| 20260506061118 | 58 | 350 | 0.9 | 3.5 | 0.15 | 0.38 | 0.00 | 93 | 1004.3 |
| 20260506060618 | 58 | 32 | 2.6 | 3.5 | 0.18 | 0.38 | 0.00 | 94 | 1004.4 |
| 20260506060121 | 57 | 80 | 3.5 | 8.7 | 0.18 | 0.38 | 0.00 | 94 | 1004.2 |
| 20260506051118 | 58 | 265 | 0.9 | 4.3 | 0.02 | 0.23 | 0.00 | 94 | 1005.8 |
| 20260506050618 | 58 | 55 | 0.0 | 0.0 | 0.00 | 0.21 | 0.00 | 94 | 1005.7 |
| 20260506050118 | 58 | 55 | 0.0 | 1.7 | 0.00 | 0.22 | 0.00 | 93 | 1005.5 |
| 20260506045121 | 58 | 13 | 1.7 | 3.5 | 0.00 | 0.24 | 0.00 | 92 | 1005.1 |
| 20260506044624 | 58 | 22 | 0.9 | 4.3 | 0.00 | 0.26 | 0.00 | 93 | 1005.2 |
| 20260506044121 | 57 | 68 | 2.6 | 4.3 | 0.00 | 0.28 | 0.00 | 93 | 1005.3 |
| 20260506043618 | 57 | 36 | 3.5 | 3.5 | 0.00 | 0.29 | 0.00 | 93 | 1005.2 |
| 20260506043121 | 57 | 63 | 1.7 | 3.5 | 0.00 | 0.31 | 0.00 | 93 | 1005.2 |
| 20260506042618 | 57 | 49 | 0.0 | 1.7 | 0.00 | 0.32 | 0.00 | 93 | 1005.2 |
| 20260506042118 | 57 | 50 | 0.9 | 1.7 | 0.00 | 0.33 | 0.00 | 93 | 1005.3 |
| 20260506041621 | 57 | 51 | 0.9 | 2.6 | 0.00 | 0.37 | 0.00 | 93 | 1005.4 |
| 20260506041118 | 57 | 34 | 1.7 | 3.5 | 0.00 | 0.39 | 0.00 | 94 | 1005.3 |
| 20260506040621 | 57 | 38 | 0.9 | 2.6 | 0.00 | 0.41 | 0.00 | 94 | 1005.3 |
| 20260506040121 | 57 | 47 | 2.6 | 3.5 | 0.00 | 0.44 | 0.00 | 93 | 1005.5 |
| 20260506035618 | 58 | 38 | 1.7 | 3.5 | 0.00 | 0.47 | 0.00 | 93 | 1005.8 |
| 20260506035121 | 58 | 61 | 0.9 | 3.5 | 0.00 | 0.51 | 0.00 | 93 | 1006.1 |
| 20260506034618 | 58 | 36 | 1.7 | 3.5 | 0.00 | 0.57 | 0.00 | 93 | 1006.2 |
| 20260506034123 | 58 | 35 | 3.5 | 4.3 | 0.00 | 0.61 | 0.00 | 93 | 1006.2 |
| 20260506033621 | 58 | 40 | 0.9 | 4.3 | 0.00 | 0.64 | 0.00 | 94 | 1006.1 |
| 20260506033118 | 58 | 24 | 2.6 | 4.3 | 0.00 | 0.68 | 0.00 | 94 | 1006.1 |
| 20260506032624 | 58 | 22 | 2.6 | 4.3 | 0.00 | 0.72 | 0.00 | 94 | 1006.2 |
| 20260506032118 | 58 | 18 | 1.7 | 2.6 | 0.00 | 0.75 | 0.00 | 95 | 1006.0 |
| 20260506031621 | 58 | 351 | 1.7 | 3.5 | 0.00 | 0.79 | 0.00 | 95 | 1006.1 |
| 20260506031118 | 58 | 22 | 2.6 | 2.6 | 0.00 | 0.84 | 0.00 | 95 | 1006.2 |
| 20260506030618 | 58 | 28 | 1.7 | 3.5 | 0.00 | 0.87 | 0.00 | 95 | 1006.1 |
| 20260506030117 | 58 | 16 | 3.5 | 1.7 | 0.00 | 0.92 | 0.00 | 95 | 1006.0 |
| 20260506025618 | 59 | 254 | 0.0 | 1.7 | 0.01 | 0.96 | 0.00 | 95 | 1006.0 |
| 20260506025124 | 59 | 9 | 0.0 | 2.6 | 0.01 | 1.00 | 0.00 | 94 | 1006.0 |
| 20260506024617 | 59 | 274 | 0.0 | 2.6 | 0.02 | 1.07 | 0.00 | 95 | 1006.0 |
| 20260506024117 | 59 | 30 | 0.9 | 1.7 | 0.02 | 1.11 | 0.00 | 95 | 1006.1 |
| 20260506023620 | 59 | 30 | 1.7 | 2.6 | 0.03 | 1.14 | 0.00 | 94 | 1005.9 |
| 20260506023123 | 59 | 48 | 0.9 | 1.7 | 0.05 | 1.23 | 0.00 | 94 | 1005.8 |
| 20260506022620 | 59 | 212 | 0.0 | 2.6 | 0.08 | 1.29 | 0.00 | 94 | 1005.8 |
| 20260506022118 | 59 | 220 | 0.9 | 2.6 | 0.09 | 1.34 | 0.00 | 94 | 1005.9 |
| 20260506021621 | 59 | 233 | 1.7 | 2.6 | 0.10 | 1.38 | 0.00 | 94 | 1006.0 |
| 20260506021117 | 59 | 37 | 0.0 | 2.6 | 0.11 | 1.42 | 0.00 | 94 | 1006.1 |
| 20260506020623 | 59 | 24 | 1.7 | 6.1 | 0.11 | 1.45 | 0.00 | 94 | 1006.4 |
| 20260506020117 | 59 | 38 | 2.6 | 3.5 | 0.11 | 1.50 | 0.00 | 94 | 1006.7 |
| 20260506015621 | 59 | 67 | 2.6 | 7.0 | 0.11 | 1.53 | 0.00 | 94 | 1006.9 |
| 20260506015120 | 59 | 46 | 4.3 | 9.6 | 0.12 | 1.57 | 0.00 | 94 | 1007.0 |
| 20260506014623 | 59 | 66 | 5.2 | 6.1 | 0.13 | 1.60 | 0.00 | 94 | 1007.0 |
| 20260506014117 | 59 | 330 | 0.9 | 1.7 | 0.14 | 1.63 | 0.00 | 95 | 1007.1 |
| 20260506013620 | 59 | 71 | 1.7 | 3.5 | 0.13 | 1.65 | 0.00 | 94 | 1007.0 |
| 20260506013117 | 59 | 48 | 1.7 | 3.5 | 0.12 | 1.66 | 0.00 | 95 | 1007.2 |
| 20260506012617 | 58 | 61 | 1.7 | 3.5 | 0.10 | 1.65 | 0.00 | 95 | 1007.2 |
| 20260506012123 | 58 | 38 | 2.6 | 3.5 | 0.10 | 1.68 | 0.00 | 95 | 1007.4 |
| 20260506011618 | 58 | 25 | 1.7 | 3.5 | 0.09 | 1.74 | 0.00 | 94 | 1007.6 |
| 20260506011118 | 58 | 44 | 2.6 | 4.3 | 0.08 | 1.76 | 0.00 | 94 | 1007.6 |
| 20260506010617 | 58 | 38 | 3.5 | 4.3 | 0.08 | 1.77 | 0.00 | 94 | 1007.5 |
| 20260506010117 | 58 | 0 | 0.0 | 2.6 | 0.08 | 1.81 | 0.00 | 94 | 1007.2 |
| 20260506005618 | 58 | 22 | 0.9 | 3.5 | 0.07 | 1.81 | 0.00 | 94 | 1007.2 |
| 20260506005120 | 59 | 60 | 2.6 | 3.5 | 0.06 | 1.81 | 0.00 | 94 | 1007.3 |
| 20260506004623 | 59 | 21 | 2.6 | 3.5 | 0.04 | 1.82 | 0.00 | 94 | 1007.5 |
| 20260506004118 | 59 | 49 | 1.7 | 3.5 | 0.03 | 1.82 | 0.00 | 93 | 1007.5 |
| 20260506003620 | 59 | 40 | 2.6 | 4.3 | 0.03 | 1.84 | 0.00 | 93 | 1007.8 |
| 20260506003118 | 59 | 44 | 1.7 | 4.3 | 0.02 | 1.84 | 0.00 | 93 | 1008.1 |
| 20260506002617 | 59 | 50 | 2.6 | 3.5 | 0.01 | 1.84 | 0.00 | 92 | 1008.2 |
| 20260506002117 | 59 | 64 | 2.6 | 3.5 | 0.00 | 1.85 | 0.00 | 92 | 1008.1 |
| 20260506001621 | 59 | 11 | 1.7 | 2.6 | 0.00 | 1.87 | 0.00 | 91 | 1007.8 |
| 20260506001121 | 59 | 31 | 1.7 | 4.3 | 0.00 | 1.87 | 0.00 | 91 | 1007.5 |
| 20260506000618 | 60 | 67 | 2.6 | 3.5 | 0.00 | 1.88 | 0.00 | 90 | 1007.6 |
| 20260506000118 | 60 | 47 | 0.9 | 1.7 | 0.00 | 1.89 | 0.00 | 90 | 1007.7 |
| 20260505235618 | 60 | 46 | 0.0 | 2.6 | 0.00 | 1.92 | 0.00 | 90 | 1007.8 |
| 20260505235124 | 60 | 49 | 0.0 | 2.6 | 0.00 | 1.94 | 0.00 | 90 | 1007.9 |
| 20260505234620 | 60 | 47 | 1.7 | 2.6 | 0.00 | 2.00 | 0.00 | 90 | 1008.1 |